Time,TemperatureF,DewpointF,PressureIn,WindDirection,WindDirectionDegrees,WindSpeedMPH,WindSpeedGustMPH,Humidity,HourlyPrecipIn,Conditions,Clouds,dailyrainin,SoftwareType,DateUTC
2013-03-20 00:02:00,59.0,21.0,29.98,NE,47,0.0,3.0,23,0.00,,,0.00,,2013-03-20 06:02:00,
2013-03-20 00:12:00,59.0,21.0,29.98,NE,47,0.0,3.0,23,0.00,,,0.00,,2013-03-20 06:12:00,
2013-03-20 00:22:00,59.0,21.0,29.99,NE,41,1.0,3.0,23,0.00,,,0.00,,2013-03-20 06:22:00,
2013-03-20 00:32:00,58.0,21.0,29.99,WNW,300,1.0,2.0,24,0.00,,,0.00,,2013-03-20 06:32:00,
2013-03-20 00:42:00,58.0,21.0,29.99,WNW,300,1.0,2.0,24,0.00,,,0.00,,2013-03-20 06:42:00,
2013-03-20 00:52:00,58.0,22.0,29.99,NNE,16,0.0,2.0,25,0.00,,,0.00,,2013-03-20 06:52:00,
2013-03-20 01:02:00,58.0,21.0,29.99,North,350,0.0,1.0,24,0.00,,,0.00,,2013-03-20 07:02:00,
2013-03-20 01:12:00,58.0,21.0,29.99,North,350,0.0,1.0,24,0.00,,,0.00,,2013-03-20 07:12:00,
2013-03-20 01:22:00,58.0,22.0,29.99,NNW,346,0.0,1.0,25,0.00,,,0.00,,2013-03-20 07:22:00,
2013-03-20 01:32:00,56.0,23.0,29.99,NNW,346,0.0,0.0,28,0.00,,,0.00,,2013-03-20 07:32:00,
2013-03-20 01:42:00,56.0,23.0,29.99,NNW,346,0.0,0.0,28,0.00,,,0.00,,2013-03-20 07:42:00,
2013-03-20 01:52:00,56.0,23.0,30.00,NW,304,0.0,3.0,27,0.00,,,0.00,,2013-03-20 07:52:00,
2013-03-20 02:02:00,55.0,22.0,30.00,North,351,0.0,2.0,27,0.00,,,0.00,,2013-03-20 08:02:00,
2013-03-20 02:12:00,55.0,22.0,30.00,North,351,0.0,2.0,27,0.00,,,0.00,,2013-03-20 08:12:00,
2013-03-20 02:22:00,54.0,22.0,30.01,SSE,160,0.0,1.0,28,0.00,,,0.00,,2013-03-20 08:22:00,
2013-03-20 02:32:00,52.0,22.0,30.01,NW,323,0.0,1.0,31,0.00,,,0.00,,2013-03-20 08:32:00,
2013-03-20 02:42:00,52.0,22.0,30.01,NW,323,0.0,1.0,31,0.00,,,0.00,,2013-03-20 08:42:00,
2013-03-20 02:52:00,53.0,22.0,30.02,WSW,253,1.0,3.0,30,0.00,,,0.00,,2013-03-20 08:52:00,
2013-03-20 03:02:00,53.0,22.0,30.02,WSW,253,1.0,3.0,30,0.00,,,0.00,,2013-03-20 09:02:00,
2013-03-20 03:12:00,53.0,22.0,30.02,WSW,253,1.0,3.0,30,0.00,,,0.00,,2013-03-20 09:12:00,
2013-03-20 03:22:00,51.0,21.0,30.03,WSW,257,0.0,2.0,31,0.00,,,0.00,,2013-03-20 09:22:00,
2013-03-20 03:33:00,51.0,21.0,30.02,NW,317,0.0,1.0,31,0.00,,,0.00,,2013-03-20 09:33:00,
2013-03-20 03:43:00,51.0,21.0,30.02,NW,317,0.0,1.0,31,0.00,,,0.00,,2013-03-20 09:43:00,
2013-03-20 03:52:00,50.0,23.0,30.02,NNW,333,0.0,1.0,34,0.00,,,0.00,,2013-03-20 09:52:00,
2013-03-20 04:03:00,49.0,22.0,30.02,North,1,0.0,1.0,34,0.00,,,0.00,,2013-03-20 10:03:00,
2013-03-20 04:12:00,49.0,22.0,30.02,North,1,0.0,1.0,34,0.00,,,0.00,,2013-03-20 10:12:00,
2013-03-20 04:23:00,49.0,22.0,30.01,North,352,0.0,1.0,34,0.00,,,0.00,,2013-03-20 10:23:00,
2013-03-20 04:32:00,49.0,20.0,30.01,WNW,303,0.0,1.0,32,0.00,,,0.00,,2013-03-20 10:32:00,
2013-03-20 04:42:00,49.0,20.0,30.01,WNW,303,0.0,1.0,32,0.00,,,0.00,,2013-03-20 10:42:00,
2013-03-20 04:52:00,49.0,21.0,30.02,NNW,344,0.0,1.0,33,0.00,,,0.00,,2013-03-20 10:52:00,
2013-03-20 05:03:00,47.0,22.0,30.02,NNW,345,0.0,0.0,37,0.00,,,0.00,,2013-03-20 11:03:00,
2013-03-20 05:12:00,47.0,22.0,30.02,NNW,345,0.0,0.0,37,0.00,,,0.00,,2013-03-20 11:12:00,
2013-03-20 05:22:00,46.0,23.0,30.03,WSW,243,0.0,1.0,40,0.00,,,0.00,,2013-03-20 11:22:00,
2013-03-20 05:32:00,46.0,23.0,30.03,WSW,243,0.0,1.0,40,0.00,,,0.00,,2013-03-20 11:32:00,
2013-03-20 05:42:00,46.0,23.0,30.03,WSW,243,0.0,1.0,40,0.00,,,0.00,,2013-03-20 11:42:00,
2013-03-20 05:52:00,46.0,22.0,30.04,NNE,20,0.0,2.0,38,0.00,,,0.00,,2013-03-20 11:52:00,
2013-03-20 06:02:00,46.0,22.0,30.05,North,359,0.0,1.0,39,0.00,,,0.00,,2013-03-20 12:02:00,
2013-03-20 06:12:00,46.0,22.0,30.05,North,359,0.0,1.0,39,0.00,,,0.00,,2013-03-20 12:12:00,
2013-03-20 06:22:00,46.0,23.0,30.05,North,8,0.0,1.0,40,0.00,,,0.00,,2013-03-20 12:22:00,
2013-03-20 06:32:00,46.0,22.0,30.06,North,353,0.0,3.0,38,0.00,,,0.00,,2013-03-20 12:32:00,
2013-03-20 06:42:00,46.0,22.0,30.06,North,353,0.0,3.0,38,0.00,,,0.00,,2013-03-20 12:42:00,
2013-03-20 06:52:00,46.0,22.0,30.07,North,6,0.0,2.0,39,0.00,,,0.00,,2013-03-20 12:52:00,
2013-03-20 07:03:00,45.0,22.0,30.07,North,5,0.0,2.0,40,0.00,,,0.00,,2013-03-20 13:03:00,
2013-03-20 07:12:00,45.0,22.0,30.07,North,5,0.0,2.0,40,0.00,,,0.00,,2013-03-20 13:12:00,
2013-03-20 07:22:00,45.0,22.0,30.08,NNE,18,0.0,2.0,40,0.00,,,0.00,,2013-03-20 13:22:00,
2013-03-20 07:32:00,45.0,22.0,30.08,NW,321,0.0,3.0,40,0.00,,,0.00,,2013-03-20 13:32:00,
2013-03-20 07:42:00,45.0,22.0,30.08,NW,321,0.0,3.0,40,0.00,,,0.00,,2013-03-20 13:42:00,
2013-03-20 07:52:00,45.0,22.0,30.08,North,351,1.0,3.0,40,0.00,,,0.00,,2013-03-20 13:52:00,
2013-03-20 08:03:00,44.0,21.0,30.09,North,11,0.0,5.0,40,0.00,,,0.00,,2013-03-20 14:03:00,
2013-03-20 08:12:00,44.0,21.0,30.09,North,11,0.0,5.0,40,0.00,,,0.00,,2013-03-20 14:12:00,
2013-03-20 08:23:00,44.0,21.0,30.09,NNW,327,0.0,3.0,40,0.00,,,0.00,,2013-03-20 14:23:00,
2013-03-20 08:33:00,45.0,22.0,30.10,NNW,348,0.0,2.0,39,0.00,,,0.00,,2013-03-20 14:33:00,
2013-03-20 08:42:00,45.0,22.0,30.10,NNW,348,0.0,2.0,39,0.00,,,0.00,,2013-03-20 14:42:00,
2013-03-20 08:52:00,46.0,24.0,30.11,SSE,168,0.0,1.0,41,0.00,,,0.00,,2013-03-20 14:52:00,
2013-03-20 09:02:00,47.0,24.0,30.11,ESE,119,2.0,4.0,40,0.00,,,0.00,,2013-03-20 15:02:00,
2013-03-20 09:12:00,48.0,24.0,30.11,ESE,103,1.0,3.0,38,0.00,,,0.00,,2013-03-20 15:12:00,
2013-03-20 09:22:00,48.0,24.0,30.11,ESE,103,1.0,3.0,38,0.00,,,0.00,,2013-03-20 15:22:00,
2013-03-20 09:33:00,49.0,23.0,30.11,ESE,103,0.0,2.0,36,0.00,,,0.00,,2013-03-20 15:33:00,
2013-03-20 09:43:00,49.0,23.0,30.11,ESE,103,0.0,2.0,36,0.00,,,0.00,,2013-03-20 15:43:00,
2013-03-20 09:52:00,51.0,24.0,30.11,WSW,248,0.0,1.0,34,0.00,,,0.00,,2013-03-20 15:52:00,
2013-03-20 10:03:00,53.0,25.0,30.11,SW,229,0.0,2.0,33,0.00,,,0.00,,2013-03-20 16:03:00,
2013-03-20 10:12:00,53.0,25.0,30.11,SW,229,0.0,2.0,33,0.00,,,0.00,,2013-03-20 16:12:00,
2013-03-20 10:23:00,55.0,25.0,30.11,South,184,0.0,1.0,31,0.00,,,0.00,,2013-03-20 16:23:00,
2013-03-20 10:33:00,56.0,24.0,30.10,West,276,0.0,1.0,29,0.00,,,0.00,,2013-03-20 16:33:00,
2013-03-20 10:42:00,56.0,24.0,30.10,West,276,0.0,1.0,29,0.00,,,0.00,,2013-03-20 16:42:00,
2013-03-20 10:52:00,59.0,28.0,30.10,SSW,205,1.0,3.0,30,0.00,,,0.00,,2013-03-20 16:52:00,
2013-03-20 11:03:00,60.0,27.0,30.09,SW,221,0.0,4.0,28,0.00,,,0.00,,2013-03-20 17:03:00,
2013-03-20 11:12:00,60.0,27.0,30.09,SW,221,0.0,4.0,28,0.00,,,0.00,,2013-03-20 17:12:00,
2013-03-20 11:22:00,62.0,27.0,30.09,West,263,2.0,4.0,26,0.00,,,0.00,,2013-03-20 17:22:00,
2013-03-20 11:32:00,63.0,29.0,30.08,NNE,32,0.0,3.0,28,0.00,,,0.00,,2013-03-20 17:32:00,
2013-03-20 11:42:00,63.0,29.0,30.08,NNE,32,0.0,3.0,28,0.00,,,0.00,,2013-03-20 17:42:00,
2013-03-20 11:52:00,63.0,28.0,30.07,ENE,60,0.0,3.0,26,0.00,,,0.00,,2013-03-20 17:52:00,
2013-03-20 12:02:00,66.0,26.0,30.06,SE,143,2.0,4.0,22,0.00,,,0.00,,2013-03-20 18:02:00,
2013-03-20 12:12:00,66.0,26.0,30.06,SE,143,2.0,4.0,22,0.00,,,0.00,,2013-03-20 18:12:00,
2013-03-20 12:22:00,67.0,28.0,30.05,SE,146,1.0,5.0,23,0.00,,,0.00,,2013-03-20 18:22:00,
2013-03-20 12:33:00,67.0,28.0,30.04,SSE,161,4.0,9.0,23,0.00,,,0.00,,2013-03-20 18:33:00,
2013-03-20 12:42:00,67.0,28.0,30.04,SSE,161,4.0,9.0,23,0.00,,,0.00,,2013-03-20 18:42:00,
2013-03-20 12:52:00,68.0,27.0,30.03,SSE,148,3.0,10.0,21,0.00,,,0.00,,2013-03-20 18:52:00,
2013-03-20 13:02:00,67.0,27.0,30.02,SSE,162,6.0,11.0,22,0.00,,,0.00,,2013-03-20 19:02:00,
2013-03-20 13:12:00,67.0,27.0,30.02,SSE,162,6.0,11.0,22,0.00,,,0.00,,2013-03-20 19:12:00,
2013-03-20 13:22:00,67.0,27.0,30.01,SW,215,4.0,10.0,22,0.00,,,0.00,,2013-03-20 19:22:00,
2013-03-20 13:32:00,68.0,28.0,30.00,SSE,163,4.0,9.0,22,0.00,,,0.00,,2013-03-20 19:32:00,
2013-03-20 13:42:00,68.0,28.0,30.00,SSE,163,4.0,9.0,22,0.00,,,0.00,,2013-03-20 19:42:00,
2013-03-20 13:52:00,68.0,28.0,29.99,SSW,208,4.0,7.0,22,0.00,,,0.00,,2013-03-20 19:52:00,
2013-03-20 14:02:00,68.0,28.0,29.98,South,179,3.0,10.0,22,0.00,,,0.00,,2013-03-20 20:02:00,
2013-03-20 14:13:00,68.0,28.0,29.98,South,179,3.0,10.0,22,0.00,,,0.00,,2013-03-20 20:13:00,
2013-03-20 14:22:00,68.0,29.0,29.97,SSW,194,4.0,14.0,23,0.00,,,0.00,,2013-03-20 20:22:00,
2013-03-20 14:32:00,69.0,29.0,29.96,SSE,153,4.0,9.0,22,0.00,,,0.00,,2013-03-20 20:32:00,
2013-03-20 14:42:00,69.0,29.0,29.96,SSE,153,4.0,9.0,22,0.00,,,0.00,,2013-03-20 20:42:00,
2013-03-20 14:52:00,69.0,30.0,29.94,SE,144,2.0,8.0,23,0.00,,,0.00,,2013-03-20 20:52:00,
2013-03-20 15:02:00,69.0,30.0,29.93,SSE,155,1.0,5.0,23,0.00,,,0.00,,2013-03-20 21:02:00,
2013-03-20 15:12:00,69.0,30.0,29.93,SSE,155,1.0,5.0,23,0.00,,,0.00,,2013-03-20 21:12:00,
2013-03-20 15:22:00,69.0,29.0,29.92,SE,146,3.0,6.0,22,0.00,,,0.00,,2013-03-20 21:22:00,
2013-03-20 15:33:00,69.0,27.0,29.91,SE,135,1.0,5.0,21,0.00,,,0.00,,2013-03-20 21:33:00,
2013-03-20 15:42:00,69.0,27.0,29.91,SE,135,1.0,5.0,21,0.00,,,0.00,,2013-03-20 21:42:00,
2013-03-20 15:52:00,69.0,29.0,29.89,South,181,2.0,7.0,22,0.00,,,0.00,,2013-03-20 21:52:00,
2013-03-20 16:03:00,70.0,28.0,29.88,SSE,147,3.0,8.0,21,0.00,,,0.00,,2013-03-20 22:03:00,
2013-03-20 16:12:00,70.0,28.0,29.88,SSE,147,3.0,8.0,21,0.00,,,0.00,,2013-03-20 22:12:00,
2013-03-20 16:23:00,70.0,29.0,29.87,ESE,114,2.0,6.0,22,0.00,,,0.00,,2013-03-20 22:23:00,
2013-03-20 16:33:00,71.0,29.0,29.87,SE,129,3.0,5.0,21,0.00,,,0.00,,2013-03-20 22:33:00,
2013-03-20 16:42:00,71.0,29.0,29.87,SE,129,3.0,5.0,21,0.00,,,0.00,,2013-03-20 22:42:00,
2013-03-20 16:52:00,72.0,29.0,29.86,SW,221,3.0,8.0,20,0.00,,,0.00,,2013-03-20 22:52:00,
2013-03-20 17:02:00,72.0,27.0,29.85,SSW,211,2.0,9.0,19,0.00,,,0.00,,2013-03-20 23:02:00,
2013-03-20 17:12:00,72.0,27.0,29.85,SSW,211,2.0,9.0,19,0.00,,,0.00,,2013-03-20 23:12:00,
2013-03-20 17:22:00,72.0,27.0,29.85,SE,136,2.0,6.0,19,0.00,,,0.00,,2013-03-20 23:22:00,
2013-03-20 17:32:00,72.0,27.0,29.85,SE,136,2.0,6.0,19,0.00,,,0.00,,2013-03-20 23:32:00,
2013-03-20 17:42:00,72.0,27.0,29.85,SE,136,2.0,6.0,19,0.00,,,0.00,,2013-03-20 23:42:00,
2013-03-20 17:52:00,72.0,27.0,29.84,SSE,159,3.0,7.0,19,0.00,,,0.00,,2013-03-20 23:52:00,
2013-03-20 18:02:00,72.0,27.0,29.84,SW,233,2.0,5.0,19,0.00,,,0.00,,2013-03-21 00:02:00,
2013-03-20 18:12:00,72.0,27.0,29.84,SW,233,2.0,5.0,19,0.00,,,0.00,,2013-03-21 00:12:00,
2013-03-20 18:23:00,71.0,28.0,29.84,SSW,204,3.0,7.0,20,0.00,,,0.00,,2013-03-21 00:23:00,
2013-03-20 18:32:00,71.0,28.0,29.83,SW,225,3.0,7.0,20,0.00,,,0.00,,2013-03-21 00:32:00,
2013-03-20 18:42:00,71.0,28.0,29.83,SW,225,3.0,7.0,20,0.00,,,0.00,,2013-03-21 00:42:00,
2013-03-20 18:52:00,71.0,30.0,29.83,SW,219,4.0,6.0,22,0.00,,,0.00,,2013-03-21 00:52:00,
2013-03-20 19:02:00,69.0,27.0,29.83,South,172,0.0,5.0,21,0.00,,,0.00,,2013-03-21 01:02:00,
2013-03-20 19:12:00,69.0,27.0,29.83,South,172,0.0,5.0,21,0.00,,,0.00,,2013-03-21 01:12:00,
2013-03-20 19:22:00,68.0,30.0,29.83,SW,219,1.0,3.0,24,0.00,,,0.00,,2013-03-21 01:22:00,
2013-03-20 19:32:00,66.0,31.0,29.83,SW,222,0.0,1.0,27,0.00,,,0.00,,2013-03-21 01:32:00,
2013-03-20 19:42:00,66.0,31.0,29.83,SW,222,0.0,1.0,27,0.00,,,0.00,,2013-03-21 01:42:00,
2013-03-20 19:52:00,64.0,27.0,29.82,SW,217,0.0,1.0,25,0.00,,,0.00,,2013-03-21 01:52:00,
2013-03-20 20:02:00,63.0,29.0,29.81,SSE,167,0.0,0.0,28,0.00,,,0.00,,2013-03-21 02:02:00,
2013-03-20 20:12:00,63.0,29.0,29.81,SSE,167,0.0,0.0,28,0.00,,,0.00,,2013-03-21 02:12:00,
2013-03-20 20:22:00,62.0,29.0,29.80,SSE,167,0.0,1.0,28,0.00,,,0.00,,2013-03-21 02:22:00,
2013-03-20 20:32:00,62.0,29.0,29.80,SE,146,0.0,3.0,29,0.00,,,0.00,,2013-03-21 02:32:00,
2013-03-20 20:42:00,62.0,29.0,29.80,SE,146,0.0,3.0,29,0.00,,,0.00,,2013-03-21 02:42:00,
2013-03-20 20:51:00,62.0,29.0,29.80,SE,146,0.0,3.0,29,0.00,,,0.00,,2013-03-21 02:51:00,
2013-03-20 21:02:00,60.0,29.0,29.80,SSE,155,0.0,0.0,31,0.00,,,0.00,,2013-03-21 03:02:00,
2013-03-20 21:12:00,60.0,29.0,29.80,SSE,155,0.0,0.0,31,0.00,,,0.00,,2013-03-21 03:12:00,
2013-03-20 21:22:00,59.0,28.0,29.82,SSE,155,0.0,0.0,31,0.00,,,0.00,,2013-03-21 03:22:00,
2013-03-20 21:33:00,59.0,28.0,29.82,SSE,155,0.0,0.0,31,0.00,,,0.00,,2013-03-21 03:33:00,
2013-03-20 21:43:00,59.0,28.0,29.82,SSE,155,0.0,0.0,31,0.00,,,0.00,,2013-03-21 03:43:00,
2013-03-20 22:03:00,58.0,28.0,29.83,SSE,155,0.0,0.0,32,0.00,,,0.00,,2013-03-21 04:03:00,
2013-03-20 22:13:00,58.0,28.0,29.83,SSE,155,0.0,0.0,32,0.00,,,0.00,,2013-03-21 04:13:00,
2013-03-20 22:23:00,57.0,28.0,29.83,SSE,155,0.0,0.0,33,0.00,,,0.00,,2013-03-21 04:23:00,
2013-03-20 22:33:00,56.0,29.0,29.82,SSE,155,0.0,0.0,36,0.00,,,0.00,,2013-03-21 04:33:00,
2013-03-20 22:43:00,56.0,29.0,29.82,SSE,155,0.0,0.0,36,0.00,,,0.00,,2013-03-21 04:43:00,
2013-03-20 22:53:00,55.0,29.0,29.82,SSE,155,0.0,0.0,37,0.00,,,0.00,,2013-03-21 04:53:00,
2013-03-20 23:03:00,54.0,30.0,29.82,SSE,155,0.0,0.0,39,0.00,,,0.00,,2013-03-21 05:03:00,
2013-03-20 23:12:00,54.0,30.0,29.82,SSE,155,0.0,0.0,39,0.00,,,0.00,,2013-03-21 05:12:00,
2013-03-20 23:22:00,53.0,32.0,29.81,SSE,155,0.0,0.0,44,0.00,,,0.00,,2013-03-21 05:22:00,
2013-03-20 23:32:00,52.0,30.0,29.81,SSE,155,0.0,0.0,43,0.00,,,0.00,,2013-03-21 05:32:00,
2013-03-20 23:43:00,52.0,30.0,29.81,SSE,155,0.0,0.0,43,0.00,,,0.00,,2013-03-21 05:43:00,
2013-03-20 23:52:00,51.0,30.0,29.80,SSE,155,0.0,0.0,45,0.00,,,0.00,,2013-03-21 05:52:00,